Location: Long Island Community Building
(39.9491°N, 99.5338°W)
Time: 05:38:30
(UTC+00:00)

Cosmos 1092 Rocket - Pass Details

Date: 06 December 2019
Orbit: 953 x 996 km, 83.0° (Epoch: 24 January)

Event Time Altitude Azimuth Distance (km) Brightness Sun altitude
Rises 12:11:42 0° 352° (N) 3,664 6.8 -17.4°
Reaches altitude 10° 12:14:13 10° 352° (N) 2,708 6.1 -16.9°
Maximum altitude 12:20:25 86° 265° (W) 965 3.9 -15.8°
Drops below altitude 10° 12:26:32 10° 176° (S) 2,673 6.6 -14.7°
Sets 12:29:01 0° 176° (S) 3,614 7.3 -14.2°
